DLH139 OIBQ-EDDS

Flight info

Callsign DLH139
Flight time N/A
Altitude 32000
Route IBKUG G55 UKNAR B417 MAH W31 EGVAX/N0456F330 G667 ALTAX/N0462F320 L223 UMH G781 BONAM UT366 VAN UT367 BOZLO/N0455F340 UT367 ESEPO UL852 NEGEM T746 ARGES DCT UBOGU DCT DITAX DCT KEROP DCT INSAX DCT TITIG L173 EBEDA DCT BABEG BABEG1E
Aircraft A321/M-SDE3FGHIRWY/LB1

Departure

Time 2026-04-20 08:55
Airport Khark Airport (OIBQ)

Arrival

Time N/A
Airport Stuttgart Airport (EDDS)
Time Latitude Longitude Altitude Speed Heading
2026-04-20 08:54 29.42463 50.02177 8616 ft 274 kts 296°
2026-04-20 08:55 29.43461 50.00289 9125 ft 278 kts 295°
2026-04-20 08:55 29.44475 49.98382 9641 ft 282 kts 295°
2026-04-20 08:55 29.45511 49.96458 10128 ft 286 kts 295°
2026-04-20 08:55 29.46587 49.94458 10273 ft 303 kts 295°
2026-04-20 08:56 29.47724 49.92338 10398 ft 319 kts 295°
2026-04-20 08:56 29.48920 49.90110 10520 ft 335 kts 295°
2026-04-20 08:56 29.50169 49.87793 10750 ft 346 kts 296°
2026-04-20 08:56 29.51449 49.85431 11232 ft 349 kts 296°
2026-04-20 08:57 29.52733 49.83067 11779 ft 349 kts 296°
2026-04-20 08:57 29.54017 49.80698 12335 ft 349 kts 296°
2026-04-20 08:57 29.55297 49.78327 12922 ft 350 kts 296°
2026-04-20 08:57 29.56579 49.75947 13483 ft 350 kts 296°
2026-04-20 08:58 29.57855 49.73571 14000 ft 350 kts 295°
2026-04-20 08:58 29.59136 49.71182 14445 ft 352 kts 295°
2026-04-20 08:58 29.60421 49.68781 14889 ft 354 kts 295°
2026-04-20 08:58 29.61696 49.66399 15319 ft 356 kts 295°
2026-04-20 08:59 29.62996 49.63969 15757 ft 357 kts 296°
2026-04-20 08:59 29.64303 49.61526 16173 ft 360 kts 296°
2026-04-20 08:59 29.65620 49.59064 16602 ft 362 kts 296°
2026-04-20 08:59 29.66940 49.56594 17016 ft 364 kts 296°
2026-04-20 09:00 29.68269 49.54106 17417 ft 366 kts 296°
2026-04-20 09:00 29.69607 49.51602 17812 ft 368 kts 296°
2026-04-20 09:00 29.70947 49.49091 18193 ft 370 kts 296°
2026-04-20 09:00 29.72295 49.46564 18514 ft 371 kts 296°
2026-04-20 09:01 29.73647 49.44027 18814 ft 373 kts 296°
2026-04-20 09:01 29.75007 49.41474 19101 ft 375 kts 296°
2026-04-20 09:01 29.76352 49.38951 19395 ft 378 kts 296°
2026-04-20 09:01 29.77733 49.36368 19664 ft 381 kts 296°
2026-04-20 09:02 29.79120 49.33760 19926 ft 383 kts 296°
2026-04-20 09:02 29.80513 49.31128 20201 ft 386 kts 296°
2026-04-20 09:02 29.81911 49.28488 20532 ft 386 kts 296°
2026-04-20 09:02 29.83311 49.25851 20837 ft 387 kts 296°
2026-04-20 09:03 29.84718 49.23202 21113 ft 389 kts 296°
2026-04-20 09:03 29.86129 49.20536 21379 ft 391 kts 296°
2026-04-20 09:03 29.87548 49.17851 21628 ft 393 kts 296°
2026-04-20 09:03 29.88975 49.15156 21885 ft 395 kts 297°
2026-04-20 09:04 29.90698 49.12639 22136 ft 407 kts 310°
2026-04-20 09:04 29.92973 49.10615 22363 ft 420 kts 324°
2026-04-20 09:04 29.95696 49.09281 22591 ft 434 kts 339°
2026-04-20 09:04 29.98723 49.08781 22821 ft 447 kts 354°
2026-04-20 09:05 30.01857 49.09032 23047 ft 454 kts
2026-04-20 09:05 30.05008 49.09378 23298 ft 456 kts
2026-04-20 09:05 30.08170 49.09731 23539 ft 457 kts
2026-04-20 09:05 30.11342 49.10085 23802 ft 458 kts
2026-04-20 09:06 30.14469 49.10430 24043 ft 459 kts
2026-04-20 09:06 30.17695 49.10781 24231 ft 460 kts
2026-04-20 09:06 30.20889 49.11123 24493 ft 460 kts
2026-04-20 09:06 30.24078 49.11466 24708 ft 462 kts
2026-04-20 09:07 30.27240 49.11812 24926 ft 463 kts
2026-04-20 09:07 30.30497 49.12174 25149 ft 465 kts
2026-04-20 09:07 30.33679 49.12527 25337 ft 467 kts 359°
2026-04-20 09:07 30.36937 49.12883 25489 ft 470 kts 359°
2026-04-20 09:08 30.40200 49.13240 25671 ft 472 kts 359°
2026-04-20 09:08 30.43479 49.13597 25887 ft 474 kts 359°
2026-04-20 09:08 30.46766 49.13957 26084 ft 475 kts 360°
2026-04-20 09:08 30.50070 49.14323 26290 ft 477 kts 360°
2026-04-20 09:09 30.53374 49.14689 26492 ft 478 kts 360°
2026-04-20 09:09 30.56694 49.14936 26665 ft 476 kts 353°
2026-04-20 09:09 30.60016 49.14900 26817 ft 478 kts 353°
2026-04-20 09:09 30.63348 49.14853 27004 ft 480 kts 353°
2026-04-20 09:10 30.66691 49.14805 27191 ft 481 kts 353°
2026-04-20 09:10 30.70051 49.14759 27383 ft 483 kts 353°
2026-04-20 09:10 30.73411 49.14713 27577 ft 484 kts 353°
2026-04-20 09:10 30.76742 49.14668 27782 ft 486 kts 353°
2026-04-20 09:11 30.80179 49.14620 27923 ft 489 kts 353°
2026-04-20 09:11 30.83587 49.14571 28054 ft 491 kts 353°
2026-04-20 09:11 30.86963 49.14524 28202 ft 493 kts 353°
2026-04-20 09:11 30.90401 49.14479 28357 ft 494 kts 353°
2026-04-20 09:12 30.93849 49.14434 28509 ft 496 kts 353°
2026-04-20 09:12 30.97301 49.14393 28681 ft 497 kts 353°
2026-04-20 09:12 31.00768 49.14349 28803 ft 498 kts 353°
2026-04-20 09:12 31.04241 49.14302 28938 ft 500 kts 353°
2026-04-20 09:13 31.07719 49.14254 29119 ft 500 kts 353°
2026-04-20 09:13 31.11198 49.14206 29310 ft 500 kts 353°
2026-04-20 09:13 31.14671 49.14161 29509 ft 499 kts 353°
2026-04-20 09:13 31.18145 49.14118 29721 ft 499 kts 353°
2026-04-20 09:14 31.21625 49.14075 29876 ft 500 kts 353°
2026-04-20 09:14 31.25116 49.14031 30031 ft 501 kts 353°
2026-04-20 09:14 31.28598 49.13986 30190 ft 501 kts 353°
2026-04-20 09:14 31.32090 49.13938 30353 ft 501 kts 352°
2026-04-20 09:15 31.35565 49.13891 30522 ft 500 kts 352°
2026-04-20 09:15 31.39050 49.13842 30683 ft 500 kts 352°
2026-04-20 09:15 31.42524 49.13793 30848 ft 499 kts 352°
2026-04-20 09:15 31.45999 49.13742 31011 ft 499 kts 352°
2026-04-20 09:16 31.49467 49.13693 31181 ft 499 kts 352°
2026-04-20 09:16 31.52937 49.13647 31347 ft 498 kts 352°
2026-04-20 09:16 31.56401 49.13606 31521 ft 498 kts 352°
2026-04-20 09:16 31.59863 49.13565 31693 ft 497 kts 352°
2026-04-20 09:17 31.63327 49.13519 31823 ft 498 kts 352°
2026-04-20 09:17 31.66795 49.13471 31947 ft 499 kts 352°
2026-04-20 09:17 31.70266 49.13434 32089 ft 500 kts 354°
2026-04-20 09:17 31.73767 49.13789 32242 ft 509 kts
2026-04-20 09:18 31.77206 49.14682 32396 ft 514 kts
2026-04-20 09:18 31.80671 49.15702 32568 ft 514 kts
2026-04-20 09:18 31.84138 49.16721 32743 ft 514 kts
2026-04-20 09:18 31.87613 49.17741 32889 ft 514 kts
2026-04-20 09:19 31.91085 49.18755 33024 ft 514 kts
2026-04-20 09:19 31.94563 49.19767 33142 ft 515 kts
2026-04-20 09:19 31.96865 49.20437 33230 ft 515 kts
2026-04-20 09:19 32.00351 49.21454 33365 ft 516 kts
2026-04-20 09:20 32.03834 49.22473 33496 ft 516 kts
2026-04-20 09:20 32.07319 49.23494 33656 ft 517 kts
2026-04-20 09:20 32.10809 49.24522 33792 ft 517 kts
2026-04-20 09:20 32.14349 49.25563 33933 ft 518 kts
2026-04-20 09:21 32.17855 49.26593 34070 ft 519 kts
2026-04-20 09:21 32.21313 49.27607 34183 ft 519 kts
2026-04-20 09:21 32.24821 49.28635 34313 ft 520 kts
2026-04-20 09:21 32.28332 49.29665 34462 ft 520 kts
2026-04-20 09:22 32.31849 49.30696 34573 ft 519 kts
2026-04-20 09:22 32.35356 49.31726 34701 ft 519 kts
2026-04-20 09:22 32.38863 49.32759 34818 ft 519 kts
2026-04-20 09:22 32.42371 49.33700 34951 ft 512 kts
2026-04-20 09:23 32.45875 49.34053 35068 ft 499 kts 350°
2026-04-20 09:23 32.49287 49.33779 35190 ft 486 kts 341°
2026-04-20 09:23 32.52549 49.32935 35357 ft 474 kts 332°
2026-04-20 09:23 32.55597 49.31587 35467 ft 461 kts 323°
2026-04-20 09:24 32.58373 49.29811 35584 ft 446 kts 315°
2026-04-20 09:24 32.60917 49.27804 35702 ft 435 kts 314°
2026-04-20 09:24 32.63426 49.25807 35811 ft 433 kts 314°
2026-04-20 09:24 32.65909 49.23824 35936 ft 428 kts 314°
2026-04-20 09:25 32.68366 49.21860 36070 ft 422 kts 314°
2026-04-20 09:25 32.70790 49.19919 36215 ft 420 kts 314°
2026-04-20 09:25 32.73217 49.17968 36302 ft 422 kts 314°
2026-04-20 09:26 32.78131 49.14007 35993 ft 428 kts 314°
2026-04-20 09:26 32.82958 49.10170 36121 ft 407 kts 314°
2026-04-20 09:27 32.87589 49.06473 36047 ft 399 kts 313°
2026-04-20 09:27 32.92144 49.02799 35898 ft 399 kts 313°
2026-04-20 09:27 32.94469 49.00895 35192 ft 412 kts 313°
2026-04-20 09:28 32.96859 48.98937 35031 ft 419 kts 313°
2026-04-20 09:28 33.01700 48.95012 35016 ft 427 kts 314°
2026-04-20 09:28 33.04192 48.92992 34224 ft 441 kts 314°
2026-04-20 09:29 33.06782 48.90885 32967 ft 457 kts 314°
2026-04-20 09:29 33.09371 48.88801 32445 ft 453 kts 315°
2026-04-20 09:29 33.11988 48.86710 32163 ft 453 kts 315°
2026-04-20 09:29 33.14604 48.84618 32055 ft 452 kts 315°
2026-04-20 09:30 33.17209 48.82526 32087 ft 451 kts 315°
2026-04-20 09:30 33.22423 48.78303 32063 ft 453 kts 314°
2026-04-20 09:31 33.27640 48.74057 32073 ft 453 kts 314°
2026-04-20 09:31 33.32860 48.69806 32049 ft 453 kts 314°
2026-04-20 09:32 33.38089 48.65567 32036 ft 455 kts 315°
2026-04-20 09:32 33.43476 48.61521 32045 ft 460 kts 317°
2026-04-20 09:32 33.46220 48.59541 32187 ft 461 kts 317°
2026-04-20 09:33 33.48969 48.57563 32320 ft 460 kts 317°
2026-04-20 09:33 33.51706 48.55573 32490 ft 460 kts 317°
2026-04-20 09:33 33.54429 48.53566 32696 ft 459 kts 316°
2026-04-20 09:33 33.57137 48.51552 32907 ft 458 kts 316°
2026-04-20 09:34 33.59844 48.49529 33014 ft 458 kts 316°
2026-04-20 09:34 33.67960 48.43456 33005 ft 458 kts 316°
2026-04-20 09:35 33.73365 48.39423 32999 ft 457 kts 316°
2026-04-20 09:35 33.78762 48.35382 33003 ft 457 kts 316°